Dades meteomassalio
Diari Summary for Marc 11, 2017 Units:  English    Metric   Both
« Previous Day
Next Day »
Diari Semanal Mensual Anual Personalitzat
  Maxima: Minima: Mijana:
Temperatura: TemperatureC °F 5.4 °F 14.5 °F
Rosada: DewpointC °F 2.7 °F 5.3 °F
Humitat: Humidity % 27 % 59 %
Velocitat del vent: WindSpeedKMH mph 0.0 mph 1.8 mph
Racha vent: WindSpeedGustKMH mph - -
Vent:- - SE
Pressio: PressurehPa in 1013.4 in -
Pluja: 0.0 in    
Historical Graphs
 
 
Tabular Data for Marc 11, 2017
Time Temperature Dew Point Pressure Wind Wind Speed Wind Gust Humidity Rainfall Rate (Hourly) solar Conditions
TemperatureC °F DewpointC °F PressurehPa in Calm     Humidity % HourlyPrecipMM in SolarRadiationWatts/m^2 W/m2 Conditions
00:02 10.0 °F 4.3 °F 1019.2 in Calm     68 % 0.0 in 0.0 W/m2 CLR
00:07 9.8 °F 4.3 °F 1019.2 in Calm     69 % 0.0 in 0.0 W/m2 CLR
00:12 9.7 °F 4.4 °F 1019.2 in Calm     70 % 0.0 in 0.0 W/m2 CLR
00:17 9.5 °F 4.5 °F 1019.2 in Calm     71 % 0.0 in 0.0 W/m2 CLR
00:22 9.3 °F 4.3 °F 1019.2 in Calm     71 % 0.0 in 0.0 W/m2 CLR
00:27 9.2 °F 4.2 °F 1019.2 in Calm     71 % 0.0 in 0.0 W/m2 CLR
00:32 9.1 °F 4.3 °F 1019.2 in Calm     72 % 0.0 in 0.0 W/m2 CLR
00:37 9.1 °F 4.3 °F 1019.2 in Calm     72 % 0.0 in 0.0 W/m2 CLR
00:42 9.1 °F 4.1 °F 1019.2 in Calm     71 % 0.0 in 0.0 W/m2 CLR
00:47 9.1 °F 4.1 °F 1019.2 in Calm     71 % 0.0 in 0.0 W/m2 CLR
00:52 9.0 °F 4.0 °F 1018.8 in Calm     71 % 0.0 in 0.0 W/m2 CLR
00:57 9.0 °F 4.2 °F 1019.2 in Calm     72 % 0.0 in 0.0 W/m2 CLR
01:02 8.9 °F 4.1 °F 1018.8 in Calm     72 % 0.0 in 0.0 W/m2 CLR
01:07 8.8 °F 4.0 °F 1018.8 in Calm     72 % 0.0 in 0.0 W/m2 CLR
01:12 8.7 °F 4.1 °F 1019.2 in Calm     73 % 0.0 in 0.0 W/m2 CLR
01:17 8.6 °F 4.2 °F 1018.8 in Calm     74 % 0.0 in 0.0 W/m2 CLR
01:22 8.4 °F 4.0 °F 1018.8 in Calm     74 % 0.0 in 0.0 W/m2 CLR
01:27 8.2 °F 4.1 °F 1018.8 in Calm     75 % 0.0 in 0.0 W/m2 CLR
01:33 8.2 °F 4.0 °F 1018.8 in Calm     75 % 0.0 in 0.0 W/m2 CLR
01:38 8.1 °F 4.1 °F 1019.2 in Calm     76 % 0.0 in 0.0 W/m2 CLR
01:43 7.9 °F 3.9 °F 1019.2 in Calm     76 % 0.0 in 0.0 W/m2 CLR
01:48 7.9 °F 3.8 °F 1019.2 in Calm     75 % 0.0 in 0.0 W/m2 CLR
01:53 7.9 °F 3.8 °F 1019.2 in Calm     75 % 0.0 in 0.0 W/m2 CLR
01:58 7.9 °F 3.9 °F 1019.2 in Calm     76 % 0.0 in 0.0 W/m2 CLR
01:59 7.9 °F 3.9 °F 1019.2 in Calm     76 % 0.0 in 0.0 W/m2 CLR
02:04 8.0 °F 3.8 °F 1018.8 in Calm     75 % 0.0 in 0.0 W/m2 CLR
02:09 8.1 °F 3.8 °F 1018.8 in Calm     74 % 0.0 in 0.0 W/m2 CLR
02:14 8.1 °F 3.8 °F 1018.8 in Calm     74 % 0.0 in 0.0 W/m2 CLR
02:19 8.1 °F 3.8 °F 1018.8 in Calm     74 % 0.0 in 0.0 W/m2 CLR
02:24 8.0 °F 3.8 °F 1018.8 in Calm     75 % 0.0 in 0.0 W/m2 CLR
02:29 7.8 °F 3.9 °F 1018.8 in Calm     76 % 0.0 in 0.0 W/m2 CLR
02:34 7.7 °F 3.8 °F 1018.8 in Calm     76 % 0.0 in 0.0 W/m2 CLR
02:39 7.6 °F 3.7 °F 1018.8 in Calm     76 % 0.0 in 0.0 W/m2 CLR
02:44 7.5 °F 3.7 °F 1018.8 in Calm     77 % 0.0 in 0.0 W/m2 CLR
02:49 7.4 °F 3.8 °F 1018.8 in Calm     78 % 0.0 in 0.0 W/m2 CLR
02:54 7.3 °F 3.7 °F 1018.8 in Calm     78 % 0.0 in 0.0 W/m2 CLR
02:59 7.3 °F 3.7 °F 1018.8 in Calm     78 % 0.0 in 0.0 W/m2 CLR
03:04 7.3 °F 3.7 °F 1018.8 in Calm     78 % 0.0 in 0.0 W/m2 CLR
03:09 7.1 °F 3.6 °F 1018.8 in Calm     78 % 0.0 in 0.0 W/m2 CLR
03:14 7.0 °F 3.6 °F 1018.8 in Calm     79 % 0.0 in 0.0 W/m2 CLR
03:19 6.9 °F 3.6 °F 1018.5 in Calm     79 % 0.0 in 0.0 W/m2 CLR
03:24 6.9 °F 3.5 °F 1018.5 in Calm     79 % 0.0 in 0.0 W/m2 CLR
03:29 6.9 °F 3.6 °F 1018.5 in Calm     79 % 0.0 in 0.0 W/m2 CLR
03:34 6.9 °F 3.5 °F 1018.5 in Calm     79 % 0.0 in 0.0 W/m2 CLR
03:39 6.8 °F 3.4 °F 1018.5 in Calm     79 % 0.0 in 0.0 W/m2 CLR
03:44 6.7 °F 3.5 °F 1018.5 in Calm     80 % 0.0 in 0.0 W/m2 CLR
03:49 6.7 °F 3.5 °F 1018.5 in Calm     80 % 0.0 in 0.0 W/m2 CLR
03:54 6.7 °F 3.4 °F 1018.5 in Calm     80 % 0.0 in 0.0 W/m2 CLR
03:59 6.6 °F 3.3 °F 1018.5 in Calm     80 % 0.0 in 0.0 W/m2 CLR
04:04 6.4 °F 3.2 °F 1018.5 in Calm     80 % 0.0 in 0.0 W/m2 CLR
04:09 6.6 °F 3.2 °F 1018.5 in Calm     79 % 0.0 in 0.0 W/m2 CLR
04:14 6.9 °F 3.3 °F 1018.5 in Calm     78 % 0.0 in 0.0 W/m2 CLR
04:19 7.3 °F 3.4 °F 1018.5 in Calm     76 % 0.0 in 0.0 W/m2 CLR
04:24 7.6 °F 3.4 °F 1018.5 in Calm     75 % 0.0 in 0.0 W/m2 CLR
04:29 7.6 °F 3.4 °F 1018.5 in Calm     75 % 0.0 in 0.0 W/m2 CLR
04:34 7.5 °F 3.3 °F 1018.5 in Calm     75 % 0.0 in 0.0 W/m2 CLR
04:39 7.3 °F 3.3 °F 1018.5 in Calm     76 % 0.0 in 0.0 W/m2 CLR
04:40 7.2 °F 3.3 °F 1018.5 in Calm     76 % 0.0 in 0.0 W/m2 CLR
04:45 7.1 °F 3.2 °F 1018.5 in Calm     76 % 0.0 in 0.0 W/m2 CLR
04:50 7.0 °F 3.1 °F 1018.5 in Calm     76 % 0.0 in 0.0 W/m2 CLR
04:55 7.1 °F 3.1 °F 1018.5 in Calm     76 % 0.0 in 0.0 W/m2 CLR
05:00 7.1 °F 3.2 °F 1018.5 in Calm     76 % 0.0 in 0.0 W/m2 CLR
05:05 7.1 °F 3.3 °F 1018.5 in Calm     77 % 0.0 in 0.0 W/m2 CLR
05:10 7.1 °F 3.1 °F 1018.5 in Calm     76 % 0.0 in 0.0 W/m2 CLR
05:15 6.9 °F 3.2 °F 1018.5 in Calm     77 % 0.0 in 0.0 W/m2 CLR
05:20 6.8 °F 3.0 °F 1018.5 in Calm     77 % 0.0 in 0.0 W/m2 CLR
05:26 6.6 °F 3.1 °F 1018.5 in Calm     78 % 0.0 in 0.0 W/m2 CLR
05:31 6.6 °F 3.0 °F 1018.5 in Calm     78 % 0.0 in 0.0 W/m2 CLR
05:36 6.5 °F 3.1 °F 1018.8 in Calm     79 % 0.0 in 0.0 W/m2 CLR
05:41 6.3 °F 2.9 °F 1018.8 in Calm     79 % 0.0 in 0.0 W/m2 CLR
05:46 6.3 °F 3.1 °F 1018.8 in Calm     80 % 0.0 in 0.0 W/m2 CLR
05:51 6.2 °F 2.9 °F 1018.8 in Calm     80 % 0.0 in 0.0 W/m2 CLR
05:56 6.1 °F 2.9 °F 1018.8 in Calm     80 % 0.0 in 0.0 W/m2 CLR
06:01 6.1 °F 3.1 °F 1018.8 in Calm     81 % 0.0 in 0.0 W/m2 CLR
06:06 6.1 °F 2.9 °F 1018.8 in Calm     80 % 0.0 in 0.0 W/m2 CLR
06:11 5.9 °F 2.9 °F 1018.8 in Calm     81 % 0.0 in 0.0 W/m2 CLR
06:16 5.9 °F 2.9 °F 1018.8 in Calm     81 % 0.0 in 0.0 W/m2 CLR
06:21 6.0 °F 3.0 °F 1018.8 in Calm     81 % 0.0 in 0.0 W/m2 CLR
06:26 6.2 °F 2.9 °F 1018.8 in Calm     80 % 0.0 in 0.0 W/m2 CLR
06:31 6.1 °F 2.9 °F 1018.8 in Calm     80 % 0.0 in 0.0 W/m2 CLR
06:36 6.1 °F 2.9 °F 1019.2 in Calm     80 % 0.0 in 0.0 W/m2 CLR
06:41 5.9 °F 2.7 °F 1019.2 in Calm     80 % 0.0 in 0.0 W/m2 CLR
06:46 5.7 °F 2.7 °F 1019.2 in Calm     81 % 0.0 in 0.0 W/m2 CLR
06:51 5.6 °F 2.7 °F 1019.2 in Calm     82 % 0.0 in 0.0 W/m2 CLR
06:56 5.5 °F 2.7 °F 1019.2 in Calm     82 % 0.0 in 0.0 W/m2 CLR
07:01 5.5 °F 2.8 °F 1019.2 in Calm     83 % 0.0 in 0.0 W/m2 CLR
07:06 5.5 °F 2.8 °F 1019.2 in Calm     83 % 0.0 in 0.0 W/m2 CLR
07:11 5.6 °F 2.9 °F 1019.2 in Calm     83 % 0.0 in 0.0 W/m2 OVC
07:16 5.5 °F 2.8 °F 1019.2 in Calm     83 % 0.0 in 5.0 W/m2 OVC
07:21 5.5 °F 2.8 °F 1019.2 in Calm     83 % 0.0 in 9.0 W/m2 OVC
07:26 5.4 °F 2.8 °F 1019.2 in Calm     83 % 0.0 in 12.0 W/m2 BKN
07:31 5.4 °F 2.8 °F 1019.2 in Calm     83 % 0.0 in 16.0 W/m2 BKN
07:36 5.4 °F 2.7 °F 1019.2 in Calm     83 % 0.0 in 21.0 W/m2 BKN
07:41 5.4 °F 2.7 °F 1019.2 in Calm     83 % 0.0 in 26.0 W/m2 BKN
07:46 5.5 °F 3.0 °F 1019.2 in Calm     84 % 0.0 in 30.0 W/m2 BKN
07:51 5.7 °F 3.1 °F 1019.2 in Calm     83 % 0.0 in 39.0 W/m2 BKN
07:56 6.0 °F 3.3 °F 1019.2 in Calm     83 % 0.0 in 49.0 W/m2 SCT
08:01 6.3 °F 3.4 °F 1019.2 in Calm     82 % 0.0 in 63.0 W/m2 SCT
08:06 6.6 °F 3.7 °F 1019.2 in Calm     82 % 0.0 in 76.0 W/m2 FEW
08:11 6.9 °F 3.7 °F 1019.2 in Calm     80 % 0.0 in 88.0 W/m2 CLR
08:16 7.2 °F 3.8 °F 1019.2 in Calm     79 % 0.0 in 81.0 W/m2 FEW
08:21 7.3 °F 3.7 °F 1019.2 in Calm     78 % 0.0 in 76.0 W/m2 FEW
08:26 7.7 °F 4.1 °F 1019.2 in Calm     78 % 0.0 in 70.0 W/m2 FEW
08:31 8.0 °F 4.2 °F 1019.2 in Calm     77 % 0.0 in 111.0 W/m2 FEW
08:36 8.3 °F 4.3 °F 1019.2 in Calm     76 % 0.0 in 176.0 W/m2 CLR
08:41 8.6 °F 4.4 °F 1019.2 in Calm     75 % 0.0 in 204.0 W/m2 CLR
08:46 8.7 °F 4.3 °F 1019.2 in Calm     74 % 0.0 in 149.0 W/m2 CLR
08:51 9.1 °F 4.4 °F 1019.2 in Calm     73 % 0.0 in 216.0 W/m2 CLR
08:56 9.6 °F 5.0 °F 1019.2 in Calm     73 % 0.0 in 257.0 W/m2 CLR
09:01 10.2 °F 5.2 °F 1019.2 in Calm     71 % 0.0 in 269.0 W/m2 CLR
09:06 10.8 °F 5.3 °F 1019.2 in Calm     69 % 0.0 in 255.0 W/m2 CLR
09:11 11.3 °F 5.4 °F 1019.2 in Calm     67 % 0.0 in 237.0 W/m2 CLR
09:16 11.7 °F 5.6 °F 1018.8 in Calm     66 % 0.0 in 288.0 W/m2 CLR
09:21 12.2 °F 5.8 °F 1018.8 in Calm     65 % 0.0 in 329.0 W/m2 CLR
09:26 12.8 °F 6.2 °F 1018.8 in Calm     64 % 0.0 in 311.0 W/m2 CLR
09:31 13.4 °F 6.1 °F 1018.8 in Calm     61 % 0.0 in 309.0 W/m2 CLR
09:36 14.2 °F 7.2 °F 1018.5 in Calm     63 % 0.0 in 367.0 W/m2 CLR
09:41 14.7 °F 7.1 °F 1018.5 in Calm     60 % 0.0 in 385.0 W/m2 CLR
09:46 15.1 °F 7.1 °F 1018.5 in Calm     59 % 0.0 in 401.0 W/m2 CLR
09:51 15.4 °F 6.7 °F 1018.5 in Calm     56 % 0.0 in 413.0 W/m2 CLR
09:56 15.8 °F 7.3 °F 1018.5 in Calm     57 % 0.0 in 427.0 W/m2 CLR
10:01 16.2 °F 7.2 °F 1018.2 in Calm     55 % 0.0 in 439.0 W/m2 CLR
10:06 16.4 °F 6.8 °F 1018.2 in Calm     53 % 0.0 in 457.0 W/m2 CLR
10:11 16.7 °F 7.1 °F 1018.2 in Calm     53 % 0.0 in 469.0 W/m2 CLR
10:16 17.2 °F 6.9 °F 1018.2 in Calm     51 % 0.0 in 482.0 W/m2 CLR
10:21 17.6 °F 7.0 °F 1018.2 in Calm     50 % 0.0 in 496.0 W/m2 CLR
10:26 18.0 °F 7.1 °F 1018.2 in Calm     49 % 0.0 in 510.0 W/m2 CLR
10:31 18.4 °F 6.9 °F 1017.8 in Calm     47 % 0.0 in 522.0 W/m2 CLR
10:36 18.9 °F 7.0 °F 1017.8 in Calm     46 % 0.0 in 534.0 W/m2 CLR
10:41 19.3 °F 7.4 °F 1017.8 in Calm     46 % 0.0 in 548.0 W/m2 CLR
10:46 19.6 °F 7.9 °F 1017.8 in Calm     47 % 0.0 in 561.0 W/m2 CLR
10:51 19.8 °F 7.2 °F 1017.8 in Calm     44 % 0.0 in 573.0 W/m2 CLR
10:56 20.1 °F 7.7 °F 1017.8 in Calm     45 % 0.0 in 585.0 W/m2 CLR
11:01 20.4 °F 7.7 °F 1017.8 in Calm     44 % 0.0 in 599.0 W/m2 CLR
11:06 20.7 °F 8.0 °F 1017.8 in NE 1.9 mph   44 % 0.0 in 612.0 W/m2 CLR
11:12 20.9 °F 7.5 °F 1017.8 in East 7.4 mph 7.4 mph 42 % 0.0 in 615.0 W/m2 CLR
11:17 20.8 °F 7.8 °F 1017.8 in ENE 9.3 mph 9.3 mph 43 % 0.0 in 613.0 W/m2 CLR
11:22 20.8 °F 7.7 °F 1017.8 in ENE 9.3 mph 9.3 mph 43 % 0.0 in 635.0 W/m2 CLR
11:27 20.7 °F 8.0 °F 1017.8 in ENE 11.1 mph 11.1 mph 44 % 0.0 in 640.0 W/m2 CLR
11:32 20.5 °F 8.5 °F 1017.8 in NE 11.1 mph 11.1 mph 46 % 0.0 in 649.0 W/m2 CLR
11:37 20.5 °F 9.1 °F 1017.5 in NE 11.1 mph 11.1 mph 48 % 0.0 in 656.0 W/m2 CLR
11:42 20.6 °F 8.9 °F 1017.5 in NE 9.3 mph 9.3 mph 47 % 0.0 in 670.0 W/m2 CLR
11:47 20.7 °F 9.3 °F 1017.5 in ENE 9.3 mph 9.3 mph 48 % 0.0 in 684.0 W/m2 CLR
11:52 20.8 °F 9.1 °F 1017.5 in ENE 11.1 mph 11.1 mph 47 % 0.0 in 714.0 W/m2 CLR
11:57 21.1 °F 9.6 °F 1017.5 in NE 9.3 mph 9.3 mph 48 % 0.0 in 617.0 W/m2 CLR
12:02 21.3 °F 9.8 °F 1017.5 in ENE 11.1 mph 11.1 mph 48 % 0.0 in 752.0 W/m2 CLR
12:07 21.3 °F 8.8 °F 1017.5 in East 7.4 mph 7.4 mph 45 % 0.0 in 701.0 W/m2 CLR
12:12 21.3 °F 8.9 °F 1017.5 in ESE 5.6 mph 5.6 mph 45 % 0.0 in 596.0 W/m2 CLR
12:17 21.2 °F 8.8 °F 1017.5 in Calm     45 % 0.0 in 403.0 W/m2 CLR
12:22 21.1 °F 8.4 °F 1017.2 in ENE 11.1 mph 11.1 mph 44 % 0.0 in 786.0 W/m2 CLR
12:27 21.4 °F 8.6 °F 1017.2 in ESE 9.3 mph 9.3 mph 44 % 0.0 in 668.0 W/m2 CLR
12:32 21.2 °F 9.1 °F 1017.2 in East 5.6 mph 5.6 mph 46 % 0.0 in 772.0 W/m2 CLR
12:37 21.3 °F 8.6 °F 1017.2 in ENE 13.0 mph 13.0 mph 44 % 0.0 in 793.0 W/m2 CLR
12:42 21.4 °F 8.6 °F 1016.8 in ENE 8.0 mph 8.0 mph 44 % 0.0 in 754.0 W/m2 CLR
12:47 21.5 °F 8.4 °F 1016.8 in ENE 5.6 mph 5.6 mph 43 % 0.0 in 533.0 W/m2 CLR
12:52 21.7 °F 8.2 °F 1016.8 in East 6.4 mph 6.4 mph 42 % 0.0 in 752.0 W/m2 CLR
12:57 22.2 °F 8.3 °F 1016.8 in ENE 5.6 mph 5.6 mph 41 % 0.0 in 745.0 W/m2 CLR
13:02 22.6 °F 8.3 °F 1016.8 in NE 5.6 mph 5.6 mph 40 % 0.0 in 747.0 W/m2 CLR
13:07 22.8 °F 8.4 °F 1016.8 in Calm     40 % 0.0 in 752.0 W/m2 CLR
13:12 23.1 °F 8.8 °F 1016.8 in North 7.4 mph 7.4 mph 40 % 0.0 in 768.0 W/m2 CLR
13:13 23.1 °F 8.8 °F 1016.8 in NNW 7.4 mph 7.4 mph 40 % 0.0 in 773.0 W/m2 CLR
13:18 23.3 °F 8.2 °F 1016.8 in NW 7.4 mph 7.4 mph 38 % 0.0 in 754.0 W/m2 CLR
13:23 23.2 °F 8.1 °F 1016.5 in NW 7.4 mph 7.4 mph 38 % 0.0 in 721.0 W/m2 CLR
13:28 23.2 °F 8.1 °F 1016.5 in NW 5.6 mph 5.6 mph 38 % 0.0 in 462.0 W/m2 CLR
13:33 23.3 °F 7.8 °F 1016.5 in Calm     37 % 0.0 in 577.0 W/m2 CLR
13:38 23.4 °F 7.9 °F 1016.1 in ENE 7.4 mph   37 % 0.0 in 613.0 W/m2 CLR
13:43 23.6 °F 7.7 °F 1016.1 in Calm     36 % 0.0 in 680.0 W/m2 CLR
13:48 23.8 °F 6.6 °F 1016.1 in Calm   0.6 mph 33 % 0.0 in 731.0 W/m2 CLR
13:53 24.1 °F 7.3 °F 1015.8 in Calm     34 % 0.0 in 722.0 W/m2 CLR
13:58 24.2 °F 6.9 °F 1015.8 in Calm     33 % 0.0 in 715.0 W/m2 CLR
14:03 24.7 °F 7.8 °F 1015.8 in Calm     34 % 0.0 in 712.0 W/m2 CLR
14:08 25.1 °F 7.7 °F 1015.5 in NNE 5.6 mph 5.6 mph 33 % 0.0 in 707.0 W/m2 CLR
14:13 25.1 °F 7.2 °F 1015.5 in NNE 7.4 mph 7.4 mph 32 % 0.0 in 700.0 W/m2 CLR
14:18 24.9 °F 6.6 °F 1015.5 in ENE 4.8 mph 4.8 mph 31 % 0.0 in 694.0 W/m2 CLR
14:23 25.0 °F 7.2 °F 1015.5 in Calm   0.3 mph 32 % 0.0 in 691.0 W/m2 CLR
14:28 25.1 °F 6.7 °F 1015.5 in Calm     31 % 0.0 in 686.0 W/m2 CLR
14:33 25.2 °F 6.8 °F 1015.5 in North 9.7 mph 9.7 mph 31 % 0.0 in 677.0 W/m2 CLR
14:38 24.9 °F 7.5 °F 1015.1 in NNE 3.7 mph 3.7 mph 33 % 0.0 in 670.0 W/m2 CLR
14:43 24.9 °F 7.1 °F 1015.1 in NNW 3.7 mph 3.7 mph 32 % 0.0 in 666.0 W/m2 CLR
14:48 24.8 °F 6.6 °F 1015.1 in North 11.1 mph 11.1 mph 31 % 0.0 in 657.0 W/m2 CLR
14:53 24.8 °F 6.1 °F 1015.1 in Calm     30 % 0.0 in 649.0 W/m2 CLR
14:58 25.0 °F 7.2 °F 1015.1 in North 8.0 mph 8.0 mph 32 % 0.0 in 640.0 W/m2 CLR
15:03 25.1 °F 6.3 °F 1015.1 in North 8.0 mph 8.0 mph 30 % 0.0 in 631.0 W/m2 CLR
15:08 25.0 °F 6.2 °F 1015.1 in North 8.0 mph 8.0 mph 30 % 0.0 in 617.0 W/m2 CLR
15:13 25.1 °F 6.3 °F 1015.1 in NE 3.7 mph   30 % 0.0 in 608.0 W/m2 CLR
15:18 25.3 °F 5.4 °F 1014.8 in North 3.7 mph 3.7 mph 28 % 0.0 in 591.0 W/m2 CLR
15:23 25.4 °F 5.1 °F 1014.8 in Calm     27 % 0.0 in 608.0 W/m2 CLR
15:28 25.6 °F 5.7 °F 1014.8 in North 9.3 mph 9.3 mph 28 % 0.0 in 573.0 W/m2 CLR
15:33 25.4 °F 6.1 °F 1014.8 in North 9.3 mph 9.3 mph 29 % 0.0 in 345.0 W/m2 CLR
15:38 25.3 °F 5.4 °F 1014.8 in North 6.4 mph 6.4 mph 28 % 0.0 in 548.0 W/m2 CLR
15:43 25.3 °F 5.4 °F 1014.8 in North 3.7 mph 3.7 mph 28 % 0.0 in 554.0 W/m2 CLR
15:48 25.4 °F 6.6 °F 1014.8 in Calm     30 % 0.0 in 508.0 W/m2 CLR
15:53 25.6 °F 6.7 °F 1014.4 in NNE 5.6 mph 5.6 mph 30 % 0.0 in 422.0 W/m2 CLR
15:58 25.5 °F 5.7 °F 1014.4 in Calm     28 % 0.0 in 441.0 W/m2 CLR
16:03 25.5 °F 5.7 °F 1014.4 in NE 7.4 mph 7.4 mph 28 % 0.0 in 522.0 W/m2 CLR
16:08 25.6 °F 5.7 °F 1014.4 in East 4.8 mph 4.8 mph 28 % 0.0 in 473.0 W/m2 CLR
16:13 25.6 °F 5.2 °F 1014.4 in ENE 3.7 mph   27 % 0.0 in 443.0 W/m2 CLR
16:18 25.4 °F 5.0 °F 1014.1 in Calm     27 % 0.0 in 475.0 W/m2 CLR
16:23 25.6 °F 5.7 °F 1014.1 in NE 1.9 mph   28 % 0.0 in 466.0 W/m2 CLR
16:28 25.7 °F 5.8 °F 1014.1 in Calm     28 % 0.0 in 438.0 W/m2 CLR
16:33 25.6 °F 5.2 °F 1014.1 in ENE 5.6 mph 5.6 mph 27 % 0.0 in 417.0 W/m2 CLR
16:38 25.6 °F 5.7 °F 1013.8 in ENE 5.6 mph 5.6 mph 28 % 0.0 in 394.0 W/m2 CLR
16:43 25.7 °F 5.8 °F 1013.8 in NE 5.6 mph 5.6 mph 28 % 0.0 in 369.0 W/m2 CLR
16:48 25.6 °F 6.2 °F 1013.8 in NNE 7.4 mph 7.4 mph 29 % 0.0 in 364.0 W/m2 CLR
16:53 25.5 °F 6.7 °F 1013.8 in NNE 3.7 mph 3.7 mph 30 % 0.0 in 350.0 W/m2 CLR
16:58 25.6 °F 7.2 °F 1013.8 in Calm     31 % 0.0 in 336.0 W/m2 CLR
17:03 25.7 °F 6.8 °F 1013.8 in Calm     30 % 0.0 in 318.0 W/m2 CLR
17:08 25.8 °F 6.4 °F 1013.8 in North 1.9 mph   29 % 0.0 in 301.0 W/m2 CLR
17:13 25.8 °F 6.4 °F 1013.4 in Calm     29 % 0.0 in 287.0 W/m2 CLR
17:18 25.9 °F 6.0 °F 1013.4 in Calm     28 % 0.0 in 267.0 W/m2 CLR
17:23 26.0 °F 6.1 °F 1013.4 in Calm     28 % 0.0 in 250.0 W/m2 CLR
17:28 26.0 °F 5.6 °F 1013.4 in Calm     27 % 0.0 in 234.0 W/m2 CLR
17:33 26.0 °F 7.1 °F 1013.4 in Calm     30 % 0.0 in 214.0 W/m2 CLR
17:38 26.1 °F 7.1 °F 1013.4 in Calm     30 % 0.0 in 199.0 W/m2 CLR
17:43 26.1 °F 6.1 °F 1013.4 in Calm     28 % 0.0 in 176.0 W/m2 CLR
17:49 26.0 °F 6.6 °F 1013.4 in Calm     29 % 0.0 in 158.0 W/m2 CLR
Lo Temps de Massalio
Compliments of Weather Underground - 1 mb